Sheridan, NY

9:36 AM EDT on July 29, 2016 (GMT -0400)
Chautauqua County-Dunkirk

Weather History for KDKK - February, 2012

Change the Weather History Date:

Friday, February 24, 2012

  Actual Average Record
Temperature  
Mean Temperature 42 °F -  
Max Temperature 48 °F 36 °F 62 °F (1943)
Min Temperature 35 °F 23 °F -5 °F (1934)
Degree Days  
Heating Degree Days 24    
Moisture  
Dew Point 34 °F    
Average Humidity 79    
Maximum Humidity 87    
Minimum Humidity 65    
Precipitation  
Precipitation 0.25 in - - ()
Sea Level Pressure  
Sea Level Pressure 29.41 in    
Wind  
Wind Speed 13 mph (SW)    
Max Wind Speed 34 mph    
Max Gust Speed 52 mph    
Visibility 6 miles    
Events Rain , Snow    
Averages and records for this station are not official NWS values.
T = Trace of Precipitation, MM = Missing Value Source: NWS Daily Summary

Daily Weather History Graph

Daily Weather History Graph

Search for Another Location

Airport or City:

Trip Planner

Search our weather history database for the weather conditions in past years. The results will help you decide how hot, cold, wet, or windy it might be!

Date:

Astronomy

Feb. 24, 2012 Rise Set
Actual Time 7:01 AM EST 6:00 PM EST
Civil Twilight 6:32 AM EST 6:28 PM EST
Nautical Twilight 6:00 AM EST 7:01 PM EST
Astronomical Twilight 5:27 AM EST 7:33 PM EST
Moon 7:50 AM EST (2/24) 9:07 PM EST (2/24)
Length of Visible Light 11h 55m
Length of Day
10h 58m
Waxing Crescent, 7% of the Moon is Illuminated
Feb 24
Waxing Crescent
Feb 29
First Quarter
Mar 8
Full
Mar 14
Last Quarter
Mar 22
New

Hourly Weather History & Observations

Time (EST) Temp. Windchill Dew Point Humidity Pressure Visibility Wind Dir Wind Speed Gust Speed Precip Events Conditions
12:50 AM 39.2 °F 32.5 °F 32.0 °F 75% 29.61 in 7.0 mi SE 10.4 mph - 0.02 in Rain Light Rain
12:53 AM 39.9 °F 33.9 °F 32.0 °F 73% 29.63 in 6.0 mi SSE 9.2 mph 18.4 mph 0.02 in Rain Light Rain
1:22 AM 39.2 °F 33.6 °F 33.8 °F 81% 29.60 in - SE 8.1 mph - 0.01 in Rain Light Rain
1:48 AM 39.2 °F 35.9 °F 33.8 °F 81% 29.57 in - East 4.6 mph - 0.02 in Rain Light Rain
1:53 AM 39.9 °F 35.8 °F 33.1 °F 77% 29.59 in - East 5.8 mph - 0.03 in Rain Light Rain
2:53 AM 39.0 °F 33.4 °F 34.0 °F 82% 29.55 in - East 8.1 mph - 0.04 in Rain Light Rain
3:12 AM 39.2 °F 32.0 °F 33.8 °F 81% 29.52 in - ENE 11.5 mph - 0.01 in Rain Light Rain
3:53 AM 37.9 °F 31.5 °F 33.1 °F 83% 29.51 in - East 9.2 mph - 0.01 in   Overcast
4:03 AM 39.2 °F 32.0 °F 33.8 °F 81% 29.48 in - East 11.5 mph - N/A   Overcast
4:16 AM 37.4 °F 29.8 °F 33.8 °F 87% 29.48 in - ENE 11.5 mph - N/A   Overcast
4:27 AM 37.4 °F 29.3 °F 33.8 °F 87% 29.47 in - East 12.7 mph - N/A   Overcast
4:53 AM 37.9 °F 29.2 °F 33.1 °F 83% 29.44 in - East 15.0 mph - N/A   Overcast
5:42 AM 37.4 °F 32.8 °F 33.8 °F 87% 29.42 in - NE 5.8 mph - N/A   Overcast
5:53 AM 37.9 °F 34.4 °F 33.1 °F 83% 29.42 in - NNE 4.6 mph - N/A   Overcast
6:53 AM 41.0 °F 36.4 °F 34.0 °F 76% 29.38 in - ENE 6.9 mph - N/A   Overcast
7:53 AM 41.0 °F 37.1 °F 35.1 °F 79% 29.39 in - NNW 5.8 mph - N/A   Overcast
8:53 AM 41.0 °F 37.1 °F 36.0 °F 82% 29.35 in - North 5.8 mph - N/A   Overcast
9:53 AM 42.1 °F - 37.0 °F 82% 29.32 in - Calm Calm - 0.00 in Rain Light Rain
10:18 AM 48.2 °F - 39.2 °F 71% 29.29 in - South 6.9 mph - 0.01 in Rain Light Rain
10:53 AM 46.9 °F - 39.9 °F 77% 29.29 in - South 12.7 mph 19.6 mph 0.01 in Rain Light Rain
11:53 AM 48.0 °F - 41.0 °F 77% 29.29 in - WSW 11.5 mph - 0.01 in Rain Light Rain
12:15 PM 46.4 °F 40.7 °F 42.8 °F 87% 29.26 in - South 12.7 mph 23.0 mph 0.01 in Rain Light Rain
12:45 PM 48.2 °F - 42.8 °F 82% 29.26 in - South 15.0 mph 23.0 mph 0.01 in Rain Light Rain
12:53 PM 48.9 °F - 42.1 °F 77% 29.28 in - WSW 12.7 mph 23.0 mph 0.01 in Rain Light Rain
1:08 PM 44.6 °F 37.2 °F 39.2 °F 81% 29.28 in - WSW 17.3 mph 33.4 mph 0.02 in Rain Light Rain
1:46 PM 44.6 °F 37.8 °F 37.4 °F 76% 29.27 in - WSW 15.0 mph 23.0 mph 0.03 in Rain Light Rain
1:53 PM 43.0 °F 35.1 °F 37.0 °F 80% 29.27 in - WSW 17.3 mph 25.3 mph 0.03 in Rain Light Rain
2:03 PM 44.6 °F 38.4 °F 37.4 °F 76% 29.25 in - SW 12.7 mph 19.6 mph 0.00 in Rain Light Rain
2:53 PM 41.0 °F 31.4 °F 34.0 °F 76% 29.29 in - WSW 21.9 mph 39.1 mph 0.05 in Rain Heavy Rain
3:02 PM 39.2 °F 29.8 °F 33.8 °F 81% 29.28 in - WSW 18.4 mph 33.4 mph 0.01 in Rain Light Rain
3:21 PM 41.0 °F 32.2 °F 35.6 °F 81% 29.28 in - WSW 18.4 mph 27.6 mph 0.02 in Rain Light Rain
3:53 PM 41.0 °F 30.9 °F 34.0 °F 76% 29.30 in - WSW 24.2 mph 38.0 mph 0.02 in   Mostly Cloudy
4:53 PM 37.9 °F 25.5 °F 33.1 °F 83% 29.33 in 4.0 mi WSW 31.1 mph 49.5 mph 0.02 in Snow Light Snow
5:00 PM 37.4 °F 25.0 °F 33.8 °F 87% 29.32 in 4.0 mi WSW 29.9 mph 49.5 mph 0.00 in Snow Light Snow
5:10 PM 37.4 °F 24.6 °F 32.0 °F 81% 29.32 in 9.0 mi SW 32.2 mph 49.5 mph 0.00 in Snow Light Snow
5:31 PM 37.4 °F 24.2 °F 30.2 °F 75% 29.33 in 9.0 mi WSW 34.5 mph 51.8 mph 0.00 in Snow Light Snow
5:38 PM 37.4 °F 25.2 °F 30.2 °F 75% 29.33 in 9.0 mi WSW 28.8 mph 48.3 mph 0.00 in Snow Light Snow
5:53 PM 36.0 °F 22.2 °F 32.0 °F 86% 29.37 in 3.0 mi WSW 34.5 mph 47.2 mph 0.00 in Snow Light Snow
6:53 PM 37.0 °F 25.4 °F 32.0 °F 82% 29.41 in - WSW 25.3 mph 40.3 mph 0.00 in Snow Light Snow
7:53 PM 37.0 °F 25.6 °F 30.0 °F 76% 29.46 in - WSW 24.2 mph 43.7 mph 0.00 in   Overcast
8:53 PM 37.0 °F 25.6 °F 30.0 °F 76% 29.50 in - WSW 24.2 mph 36.8 mph 0.00 in   Overcast
9:40 PM 35.6 °F 24.2 °F 28.4 °F 75% 29.51 in - West 21.9 mph 40.3 mph 0.00 in   Overcast
9:53 PM 36.0 °F 23.9 °F 27.0 °F 70% 29.53 in - West 25.3 mph 42.6 mph 0.00 in Snow Light Snow
10:13 PM 35.6 °F 22.7 °F 28.4 °F 75% 29.53 in - West 28.8 mph 43.7 mph 0.00 in   Overcast
10:37 PM 35.6 °F 24.0 °F 24.8 °F 65% 29.54 in - West 23.0 mph 40.3 mph 0.00 in   Overcast
10:53 PM 36.0 °F 24.7 °F 26.1 °F 67% 29.56 in - West 21.9 mph 40.3 mph 0.00 in   Overcast
11:53 PM 35.1 °F 22.5 °F 25.0 °F 67% 29.57 in - West 26.5 mph 40.3 mph N/A   Overcast